| time (UTC) | temp F | wind direction | speed MPH | gust MPH | rain 1hr in | rain 24hr in | rain mn in | humidity % | barometer mb |
| 20260906025405 | 68 | 345 | 0.0 | 0.0 | 0.00 | 0.87 | 0.87 | 97 | 1018.2 |
| 20260906024904 | 68 | 345 | 0.0 | 0.0 | 0.00 | 0.87 | 0.87 | 97 | 1018.3 |
| 20260906024403 | 68 | 304 | 0.0 | 0.0 | 0.00 | 0.87 | 0.87 | 97 | 1018.5 |
| 20260906023858 | 68 | 37 | 0.0 | 0.0 | 0.00 | 0.87 | 0.87 | 97 | 1018.4 |
| 20260906023354 | 68 | 311 | 0.0 | 1.0 | 0.00 | 0.87 | 0.87 | 97 | 1017.9 |
| 20260906022848 | 69 | 345 | 0.0 | 2.0 | 0.00 | 0.87 | 0.87 | 97 | 1018.4 |
| 20260906022344 | 69 | 322 | 0.0 | 3.0 | 0.00 | 0.87 | 0.87 | 97 | 1018.2 |
| 20260906021840 | 69 | 57 | 1.0 | 2.0 | 0.00 | 0.87 | 0.87 | 97 | 1018.2 |
| 20260906021339 | 69 | 13 | 1.0 | 1.0 | 0.00 | 0.87 | 0.87 | 97 | 1018.2 |
| 20260906020834 | 69 | 53 | 1.0 | 1.0 | 0.00 | 0.87 | 0.87 | 97 | 1018.3 |
| 20260906020333 | 69 | 55 | 0.0 | 0.0 | 0.00 | 0.87 | 0.87 | 97 | 1017.9 |
| 20260906015828 | 69 | 243 | 0.0 | 0.0 | 0.00 | 0.87 | 0.87 | 97 | 1018.3 |
| 20260906015327 | 69 | 243 | 0.0 | 1.0 | 0.00 | 0.87 | 0.87 | 97 | 1018.0 |
| 20260906014826 | 69 | 322 | 0.0 | 0.0 | 0.00 | 0.87 | 0.87 | 97 | 1018.3 |
| 20260906014322 | 69 | 14 | 2.0 | 2.0 | 0.00 | 0.87 | 0.87 | 97 | 1017.5 |
| 20260906013818 | 69 | 53 | 1.0 | 3.0 | 0.00 | 0.87 | 0.87 | 96 | 1017.7 |
| 20260906013313 | 69 | 45 | 0.0 | 2.0 | 0.00 | 0.87 | 0.87 | 96 | 1017.7 |
| 20260906012809 | 69 | 32 | 1.0 | 1.0 | 0.00 | 0.87 | 0.87 | 96 | 1017.4 |
| 20260906012309 | 69 | 309 | 0.0 | 0.0 | 0.00 | 0.87 | 0.87 | 96 | 1017.4 |
| 20260906011803 | 69 | 322 | 0.0 | 0.0 | 0.00 | 0.87 | 0.87 | 96 | 1017.2 |
| 20260906011258 | 69 | 269 | 0.0 | 0.0 | 0.00 | 0.87 | 0.87 | 96 | 1017.2 |
| 20260906010754 | 69 | 37 | 0.0 | 0.0 | 0.00 | 0.87 | 0.87 | 96 | 1017.2 |
| 20260906010250 | 69 | 37 | 0.0 | 0.0 | 0.00 | 0.87 | 0.87 | 96 | 1017.4 |
| 20260906005745 | 69 | 22 | 0.0 | 0.0 | 0.00 | 0.87 | 0.87 | 96 | 1017.0 |
| 20260906005244 | 69 | 48 | 0.0 | 1.0 | 0.00 | 0.87 | 0.87 | 95 | 1017.2 |
| 20260906004743 | 69 | 38 | 1.0 | 1.0 | 0.00 | 0.87 | 0.87 | 95 | 1017.2 |
| 20260906004238 | 69 | 288 | 2.0 | 2.0 | 0.00 | 0.87 | 0.87 | 95 | 1017.2 |
| 20260906003733 | 69 | 329 | 0.0 | 0.0 | 0.00 | 0.87 | 0.87 | 94 | 1017.1 |
| 20260906003228 | 69 | 329 | 0.0 | 0.0 | 0.00 | 0.87 | 0.87 | 94 | 1017.0 |
| 20260906002723 | 70 | 308 | 0.0 | 1.0 | 0.00 | 0.87 | 0.87 | 94 | 1017.0 |
| 20260906002218 | 70 | 309 | 0.0 | 0.0 | 0.02 | 0.87 | 0.87 | 94 | 1017.0 |
| 20260906001713 | 70 | 319 | 1.0 | 1.0 | 0.02 | 0.87 | 0.87 | 93 | 1017.1 |
| 20260906001213 | 71 | 339 | 2.0 | 2.0 | 0.12 | 0.87 | 0.87 | 93 | 1017.2 |
| 20260906000709 | 71 | 344 | 2.0 | 5.0 | 0.33 | 0.87 | 0.87 | 92 | 1017.3 |
| 20260906000204 | 72 | 5 | 6.0 | 10.0 | 0.38 | 0.85 | 0.85 | 90 | 1017.2 |
| 20260905235703 | 72 | 351 | 5.0 | 13.0 | 0.12 | 0.80 | 0.80 | 90 | 1017.0 |
| 20260905235158 | 72 | 25 | 2.0 | 2.0 | 0.00 | 0.78 | 0.78 | 90 | 1017.1 |
| 20260905234653 | 73 | 242 | 0.0 | 0.0 | 0.00 | 0.78 | 0.78 | 90 | 1016.9 |
| 20260905234149 | 73 | 242 | 0.0 | 0.0 | 0.00 | 0.78 | 0.78 | 89 | 1017.0 |
| 20260905233644 | 73 | 286 | 2.0 | 2.0 | 0.00 | 0.78 | 0.78 | 87 | 1017.0 |
| 20260905233143 | 73 | 310 | 0.0 | 1.0 | 0.00 | 0.78 | 0.78 | 86 | 1016.9 |
| 20260905232638 | 73 | 242 | 0.0 | 0.0 | 0.00 | 0.78 | 0.78 | 88 | 1016.8 |
| 20260905232134 | 73 | 238 | 1.0 | 2.0 | 0.00 | 0.78 | 0.78 | 88 | 1017.0 |
| 20260905231629 | 74 | 315 | 0.0 | 0.0 | 0.00 | 0.78 | 0.78 | 86 | 1017.0 |
| 20260905231125 | 74 | 37 | 0.0 | 0.0 | 0.00 | 0.78 | 0.78 | 85 | 1016.8 |
| 20260905230621 | 74 | 62 | 0.0 | 0.0 | 0.00 | 0.78 | 0.78 | 85 | 1016.8 |
| 20260905230118 | 75 | 269 | 0.0 | 1.0 | 0.00 | 0.78 | 0.78 | 83 | 1016.7 |
| 20260905225612 | 75 | 229 | 2.0 | 3.0 | 0.00 | 0.78 | 0.78 | 83 | 1016.9 |
| 20260905225107 | 75 | 218 | 3.0 | 3.0 | 0.00 | 0.78 | 0.78 | 83 | 1016.9 |
| 20260905224602 | 75 | 246 | 2.0 | 2.0 | 0.00 | 0.78 | 0.78 | 82 | 1016.9 |
| 20260905224101 | 75 | 226 | 1.0 | 2.0 | 0.00 | 0.78 | 0.78 | 81 | 1016.7 |
| 20260905223559 | 76 | 257 | 2.0 | 2.0 | 0.00 | 0.78 | 0.78 | 81 | 1016.9 |
| 20260905223055 | 77 | 264 | 2.0 | 3.0 | 0.00 | 0.78 | 0.78 | 78 | 1016.7 |
| 20260905222554 | 79 | 280 | 2.0 | 3.0 | 0.00 | 0.78 | 0.78 | 72 | 1016.7 |
| 20260905222050 | 80 | 325 | 1.0 | 2.0 | 0.00 | 0.78 | 0.78 | 71 | 1016.9 |
| 20260905221546 | 78 | 353 | 0.0 | 2.0 | 0.00 | 0.78 | 0.78 | 73 | 1016.7 |
| 20260905221042 | 78 | 354 | 1.0 | 2.0 | 0.00 | 0.78 | 0.78 | 75 | 1016.5 |
| 20260905220537 | 75 | 2 | 0.0 | 0.0 | 0.00 | 0.78 | 0.78 | 80 | 1016.5 |
| 20260905220033 | 75 | 51 | 1.0 | 2.0 | 0.00 | 0.78 | 0.78 | 82 | 1016.4 |
| 20260905215532 | 75 | 2 | 0.0 | 3.0 | 0.00 | 0.78 | 0.78 | 79 | 1016.4 |
| 20260905215029 | 76 | 316 | 0.0 | 1.0 | 0.00 | 0.78 | 0.78 | 77 | 1016.4 |
| 20260905214525 | 76 | 324 | 1.0 | 2.0 | 0.00 | 0.78 | 0.78 | 77 | 1016.1 |
| 20260905214020 | 76 | 293 | 2.0 | 2.0 | 0.00 | 0.78 | 0.78 | 77 | 1016.2 |
| 20260905213515 | 77 | 244 | 2.0 | 2.0 | 0.00 | 0.78 | 0.78 | 77 | 1016.2 |
| 20260905213010 | 77 | 255 | 0.0 | 5.0 | 0.00 | 0.78 | 0.78 | 75 | 1016.1 |
| 20260905212505 | 78 | 287 | 4.0 | 4.0 | 0.00 | 0.78 | 0.78 | 73 | 1016.0 |
| 20260905212004 | 80 | 304 | 2.0 | 5.0 | 0.00 | 0.78 | 0.78 | 65 | 1015.8 |
| 20260905211500 | 78 | 322 | 0.0 | 2.0 | 0.00 | 0.78 | 0.78 | 72 | 1016.1 |
| 20260905210955 | 79 | 279 | 3.0 | 4.0 | 0.00 | 0.78 | 0.78 | 73 | 1015.8 |
| 20260905210451 | 78 | 338 | 4.0 | 4.0 | 0.00 | 0.78 | 0.78 | 71 | 1015.8 |
| 20260905205950 | 78 | 334 | 3.0 | 5.0 | 0.00 | 0.78 | 0.78 | 71 | 1016.1 |
| 20260905205445 | 80 | 344 | 4.0 | 5.0 | 0.00 | 0.78 | 0.78 | 71 | 1015.7 |
| 20260905204943 | 76 | 342 | 2.0 | 3.0 | 0.00 | 0.78 | 0.78 | 76 | 1016.0 |
| 20260905204440 | 77 | 333 | 3.0 | 3.0 | 0.00 | 0.78 | 0.78 | 76 | 1016.2 |
| 20260905203939 | 76 | 312 | 2.0 | 3.0 | 0.00 | 0.78 | 0.78 | 77 | 1016.2 |
| 20260905203435 | 76 | 339 | 5.0 | 6.0 | 0.00 | 0.78 | 0.78 | 76 | 1016.3 |
| 20260905202930 | 77 | 324 | 5.0 | 5.0 | 0.00 | 0.78 | 0.78 | 75 | 1016.2 |
| 20260905202425 | 75 | 25 | 3.0 | 3.0 | 0.00 | 0.78 | 0.78 | 77 | 1016.3 |
| 20260905201921 | 76 | 344 | 4.0 | 5.0 | 0.00 | 0.78 | 0.78 | 76 | 1016.4 |
| 20260905201416 | 77 | 16 | 6.0 | 9.0 | 0.00 | 0.78 | 0.78 | 75 | 1016.3 |
| 20260905200915 | 76 | 32 | 6.0 | 8.0 | 0.00 | 0.78 | 0.78 | 76 | 1016.3 |
| 20260905200411 | 77 | 44 | 3.0 | 6.0 | 0.00 | 0.78 | 0.78 | 75 | 1016.7 |
| 20260905195909 | 78 | 329 | 3.0 | 7.0 | 0.00 | 0.78 | 0.78 | 71 | 1016.4 |
| 20260905195404 | 78 | 0 | 3.0 | 8.0 | 0.00 | 0.78 | 0.78 | 70 | 1016.4 |
| 20260905194900 | 78 | 343 | 6.0 | 7.0 | 0.00 | 0.78 | 0.78 | 69 | 1016.6 |
| 20260905194359 | 78 | 328 | 3.0 | 7.0 | 0.00 | 0.78 | 0.78 | 69 | 1016.7 |
| 20260905193854 | 80 | 345 | 5.0 | 11.0 | 0.00 | 0.78 | 0.78 | 69 | 1016.5 |
| 20260905193348 | 79 | 347 | 3.0 | 5.0 | 0.00 | 0.78 | 0.78 | 73 | 1016.6 |
| 20260905192844 | 78 | 343 | 5.0 | 6.0 | 0.00 | 0.78 | 0.78 | 74 | 1016.8 |
| 20260905192340 | 77 | 89 | 2.0 | 5.0 | 0.00 | 0.78 | 0.78 | 72 | 1016.7 |
| 20260905191839 | 78 | 349 | 3.0 | 8.0 | 0.00 | 0.78 | 0.78 | 72 | 1016.8 |
| 20260905191338 | 78 | 349 | 3.0 | 5.0 | 0.00 | 0.78 | 0.78 | 73 | 1016.9 |
| 20260905190837 | 78 | 359 | 4.0 | 8.0 | 0.00 | 0.78 | 0.78 | 72 | 1016.9 |
| 20260905190337 | 77 | 322 | 4.0 | 5.0 | 0.00 | 0.78 | 0.78 | 75 | 1017.2 |
| 20260905185835 | 77 | 351 | 4.0 | 7.0 | 0.00 | 0.78 | 0.78 | 73 | 1017.1 |
| 20260905185325 | 77 | 343 | 5.0 | 7.0 | 0.00 | 0.78 | 0.78 | 76 | 1017.2 |
| 20260905184824 | 77 | 24 | 6.0 | 7.0 | 0.00 | 0.78 | 0.78 | 73 | 1017.3 |
| 20260905184324 | 77 | 335 | 5.0 | 7.0 | 0.00 | 0.78 | 0.78 | 74 | 1017.4 |
| 20260905183822 | 77 | 324 | 3.0 | 6.0 | 0.00 | 0.78 | 0.78 | 75 | 1017.3 |
| 20260905183318 | 77 | 352 | 3.0 | 6.0 | 0.00 | 0.78 | 0.78 | 74 | 1017.3 |
| 20260905182817 | 76 | 341 | 5.0 | 9.0 | 0.00 | 0.78 | 0.78 | 75 | 1017.3 |
| 20260905182312 | 76 | 354 | 3.0 | 3.0 | 0.00 | 0.78 | 0.78 | 76 | 1017.5 |
| 20260905181808 | 75 | 158 | 0.0 | 3.0 | 0.00 | 0.78 | 0.78 | 77 | 1017.6 |
| 20260905181306 | 75 | 186 | 0.0 | 2.0 | 0.00 | 0.78 | 0.78 | 77 | 1017.2 |
| 20260905180800 | 76 | 60 | 2.0 | 3.0 | 0.00 | 0.78 | 0.78 | 76 | 1017.5 |
| 20260905180255 | 75 | 235 | 0.0 | 1.0 | 0.00 | 0.78 | 0.78 | 75 | 1017.7 |
| 20260905175750 | 75 | 13 | 0.0 | 2.0 | 0.00 | 0.78 | 0.78 | 78 | 1017.9 |
| 20260905175245 | 75 | 71 | 3.0 | 3.0 | 0.00 | 0.78 | 0.78 | 78 | 1017.9 |
| 20260905174740 | 73 | 321 | 2.0 | 2.0 | 0.00 | 0.78 | 0.78 | 83 | 1017.8 |
| 20260905174236 | 74 | 330 | 3.0 | 3.0 | 0.00 | 0.78 | 0.78 | 83 | 1017.8 |
| 20260905173732 | 74 | 55 | 0.0 | 2.0 | 0.00 | 0.78 | 0.78 | 81 | 1017.8 |
| 20260905173227 | 74 | 77 | 2.0 | 3.0 | 0.00 | 0.78 | 0.78 | 81 | 1017.6 |
| 20260905172721 | 74 | 318 | 3.0 | 4.0 | 0.00 | 0.78 | 0.78 | 82 | 1017.9 |
| 20260905172221 | 75 | 254 | 1.0 | 2.0 | 0.00 | 0.78 | 0.78 | 78 | 1017.9 |
| 20260905171717 | 75 | 309 | 1.0 | 4.0 | 0.00 | 0.78 | 0.78 | 78 | 1017.9 |
| 20260905171213 | 74 | 239 | 1.0 | 2.0 | 0.00 | 0.78 | 0.78 | 78 | 1017.9 |
| 20260905170709 | 72 | 22 | 0.0 | 2.0 | 0.00 | 0.78 | 0.78 | 82 | 1017.8 |
| 20260905170204 | 70 | 11 | 1.0 | 1.0 | 0.00 | 0.78 | 0.78 | 92 | 1018.4 |
| 20260905165704 | 71 | 79 | 0.0 | 2.0 | 0.00 | 0.78 | 0.78 | 91 | 1018.2 |
| 20260905165159 | 71 | 309 | 0.0 | 0.0 | 0.00 | 0.78 | 0.78 | 90 | 1018.2 |
| 20260905164654 | 72 | 50 | 0.0 | 2.0 | 0.00 | 0.78 | 0.78 | 89 | 1018.3 |
| 20260905164153 | 73 | 108 | 0.0 | 1.0 | 0.00 | 0.78 | 0.78 | 86 | 1018.6 |
| 20260905163649 | 73 | 5 | 0.0 | 1.0 | 0.00 | 0.78 | 0.78 | 87 | 1018.5 |
| 20260905163146 | 71 | 282 | 0.0 | 0.0 | 0.00 | 0.78 | 0.78 | 86 | 1018.4 |
| 20260905162642 | 72 | 205 | 0.0 | 1.0 | 0.00 | 0.78 | 0.78 | 84 | 1018.5 |
| 20260905162140 | 73 | 29 | 0.0 | 1.0 | 0.00 | 0.78 | 0.78 | 81 | 1018.5 |
| 20260905161635 | 73 | 230 | 0.0 | 2.0 | 0.00 | 0.78 | 0.78 | 77 | 1018.6 |
| 20260905161133 | 73 | 232 | 3.0 | 3.0 | 0.00 | 0.78 | 0.78 | 79 | 1018.6 |
| 20260905160632 | 73 | 260 | 2.0 | 3.0 | 0.00 | 0.78 | 0.78 | 85 | 1018.4 |
| 20260905160127 | 72 | 264 | 3.0 | 4.0 | 0.00 | 0.78 | 0.78 | 85 | 1018.8 |
| 20260905155627 | 70 | 274 | 0.0 | 3.0 | 0.00 | 0.78 | 0.78 | 87 | 1018.7 |
| 20260905155125 | 71 | 246 | 2.0 | 2.0 | 0.00 | 0.78 | 0.78 | 86 | 1018.2 |
| 20260905154620 | 71 | 20 | 0.0 | 2.0 | 0.00 | 0.78 | 0.78 | 89 | 1018.5 |
| 20260905154116 | 70 | 305 | 0.0 | 2.0 | 0.00 | 0.78 | 0.78 | 93 | 1018.5 |
| 20260905153611 | 69 | 103 | 0.0 | 0.0 | 0.00 | 0.78 | 0.78 | 95 | 1018.4 |
| 20260905153106 | 68 | 263 | 0.0 | 2.0 | 0.00 | 0.78 | 0.78 | 95 | 1018.5 |
| 20260905152601 | 68 | 27 | 2.0 | 4.0 | 0.00 | 0.78 | 0.78 | 96 | 1018.6 |
| 20260905152056 | 68 | 291 | 2.0 | 2.0 | 0.00 | 0.78 | 0.78 | 97 | 1018.2 |
| 20260905151551 | 68 | 333 | 3.0 | 6.0 | 0.02 | 0.78 | 0.78 | 97 | 1018.5 |
| 20260905151046 | 68 | 32 | 6.0 | 11.0 | 0.05 | 0.78 | 0.78 | 97 | 1018.4 |
| 20260905150541 | 68 | 346 | 7.0 | 7.0 | 0.05 | 0.78 | 0.78 | 97 | 1018.4 |
| 20260905150039 | 68 | 358 | 4.0 | 7.0 | 0.07 | 0.78 | 0.78 | 97 | 1018.0 |
| 20260905145533 | 68 | 3 | 5.0 | 8.0 | 0.07 | 0.77 | 0.77 | 97 | 1017.6 |
| 20260905145032 | 68 | 316 | 2.0 | 4.0 | 0.02 | 0.76 | 0.76 | 97 | 1017.4 |
| 20260905144527 | 67 | 279 | 0.0 | 3.0 | 0.02 | 0.76 | 0.76 | 97 | 1017.8 |
| 20260905144026 | 67 | 339 | 0.0 | 1.0 | 0.07 | 0.76 | 0.76 | 97 | 1018.0 |
| 20260905143526 | 68 | 14 | 0.0 | 2.0 | 0.05 | 0.76 | 0.76 | 97 | 1018.5 |
| 20260905143021 | 68 | 337 | 1.0 | 1.0 | 0.02 | 0.75 | 0.75 | 97 | 1018.7 |
| 20260905142520 | 67 | 22 | 2.0 | 2.0 | 0.07 | 0.75 | 0.75 | 97 | 1019.1 |
| 20260905142015 | 67 | 54 | 2.0 | 3.0 | 0.12 | 0.74 | 0.74 | 97 | 1019.2 |
| 20260905141509 | 67 | 319 | 0.0 | 2.0 | 0.17 | 0.73 | 0.73 | 97 | 1019.3 |
| 20260905141006 | 67 | 2 | 2.0 | 2.0 | 0.26 | 0.72 | 0.72 | 97 | 1019.6 |
| 20260905140501 | 67 | 288 | 1.0 | 2.0 | 0.31 | 0.69 | 0.69 | 97 | 1019.6 |
| 20260905135959 | 67 | 328 | 0.0 | 1.0 | 0.28 | 0.67 | 0.67 | 97 | 1019.7 |
| 20260905135455 | 67 | 269 | 0.0 | 2.0 | 0.19 | 0.64 | 0.64 | 97 | 1019.7 |
| 20260905134950 | 67 | 340 | 1.0 | 2.0 | 0.17 | 0.62 | 0.62 | 97 | 1019.8 |
| 20260905134449 | 67 | 315 | 0.0 | 2.0 | 0.14 | 0.60 | 0.60 | 97 | 1019.7 |
| 20260905133949 | 67 | 316 | 0.0 | 1.0 | 0.12 | 0.59 | 0.59 | 97 | 1019.7 |
| 20260905133444 | 67 | 309 | 0.0 | 2.0 | 0.12 | 0.57 | 0.57 | 97 | 1019.7 |
| 20260905132944 | 67 | 53 | 2.0 | 2.0 | 0.12 | 0.57 | 0.57 | 97 | 1019.5 |
| 20260905132439 | 67 | 356 | 0.0 | 2.0 | 0.09 | 0.56 | 0.56 | 97 | 1019.7 |
| 20260905131933 | 68 | 55 | 0.0 | 2.0 | 0.26 | 0.55 | 0.55 | 97 | 1019.4 |
| 20260905131430 | 68 | 58 | 0.0 | 3.0 | 0.50 | 0.53 | 0.53 | 97 | 1019.5 |
| 20260905130930 | 68 | 67 | 5.0 | 9.0 | 0.57 | 0.50 | 0.50 | 97 | 1019.4 |
| 20260905130424 | 68 | 348 | 2.0 | 9.0 | 0.52 | 0.42 | 0.42 | 97 | 1019.7 |
| 20260905125923 | 67 | 4 | 5.0 | 7.0 | 0.50 | 0.40 | 0.40 | 97 | 1019.5 |
| 20260905125419 | 67 | 106 | 1.0 | 1.0 | 0.24 | 0.33 | 0.33 | 97 | 1019.0 |
| 20260905124914 | 67 | 157 | 0.0 | 0.0 | 0.12 | 0.31 | 0.31 | 97 | 1018.2 |
| 20260905124411 | 67 | 322 | 0.0 | 0.0 | 0.00 | 0.29 | 0.29 | 97 | 1018.0 |
| 20260905123910 | 67 | 229 | 0.0 | 2.0 | 0.00 | 0.29 | 0.29 | 97 | 1017.8 |
| 20260905123407 | 67 | 233 | 2.0 | 4.0 | 0.00 | 0.29 | 0.29 | 97 | 1018.2 |
| 20260905122902 | 67 | 272 | 3.0 | 3.0 | 0.00 | 0.29 | 0.29 | 97 | 1017.6 |
| 20260905122401 | 67 | 309 | 0.0 | 0.0 | 0.00 | 0.29 | 0.29 | 97 | 1017.8 |
| 20260905121857 | 67 | 322 | 0.0 | 0.0 | 0.00 | 0.29 | 0.29 | 97 | 1018.2 |
| 20260905121353 | 67 | 322 | 0.0 | 1.0 | 0.00 | 0.29 | 0.29 | 97 | 1018.2 |
| 20260905120852 | 67 | 350 | 2.0 | 2.0 | 0.00 | 0.29 | 0.29 | 97 | 1018.3 |
| 20260905120346 | 67 | 6 | 1.0 | 2.0 | 0.00 | 0.29 | 0.29 | 97 | 1018.0 |
| 20260905115842 | 67 | 27 | 2.0 | 2.0 | 0.00 | 0.29 | 0.29 | 97 | 1017.7 |
| 20260905115340 | 67 | 334 | 0.0 | 1.0 | 0.00 | 0.29 | 0.29 | 97 | 1017.7 |
| 20260905114835 | 67 | 329 | 1.0 | 2.0 | 0.00 | 0.29 | 0.29 | 97 | 1017.7 |
| 20260905114334 | 67 | 44 | 0.0 | 0.0 | 0.00 | 0.29 | 0.29 | 97 | 1017.9 |
| 20260905113828 | 67 | 336 | 0.0 | 0.0 | 0.00 | 0.29 | 0.29 | 97 | 1017.8 |
| 20260905113324 | 67 | 307 | 0.0 | 1.0 | 0.00 | 0.29 | 0.29 | 97 | 1017.6 |
| 20260905112819 | 66 | 44 | 0.0 | 1.0 | 0.00 | 0.29 | 0.29 | 97 | 1017.8 |
| 20260905112314 | 67 | 267 | 0.0 | 2.0 | 0.00 | 0.29 | 0.29 | 97 | 1017.7 |
| 20260905111809 | 67 | 315 | 0.0 | 0.0 | 0.00 | 0.29 | 0.29 | 97 | 1017.6 |
| 20260905111303 | 67 | 322 | 0.0 | 0.0 | 0.00 | 0.29 | 0.29 | 97 | 1017.9 |
| 20260905110803 | 67 | 352 | 0.0 | 1.0 | 0.00 | 0.29 | 0.29 | 97 | 1017.6 |
| 20260905110256 | 67 | 347 | 1.0 | 1.0 | 0.00 | 0.29 | 0.29 | 97 | 1017.7 |
| 20260905105752 | 66 | 322 | 0.0 | 1.0 | 0.00 | 0.29 | 0.29 | 97 | 1017.8 |
| 20260905105251 | 66 | 293 | 0.0 | 0.0 | 0.00 | 0.29 | 0.29 | 97 | 1017.7 |
| 20260905104746 | 66 | 37 | 0.0 | 0.0 | 0.00 | 0.29 | 0.29 | 97 | 1017.7 |
| 20260905104242 | 66 | 13 | 0.0 | 0.0 | 0.00 | 0.29 | 0.29 | 97 | 1017.6 |
| 20260905103741 | 66 | 305 | 1.0 | 2.0 | 0.00 | 0.29 | 0.29 | 97 | 1017.7 |
| 20260905103237 | 66 | 311 | 0.0 | 0.0 | 0.00 | 0.29 | 0.29 | 97 | 1017.6 |
| 20260905102733 | 66 | 322 | 0.0 | 0.0 | 0.00 | 0.29 | 0.29 | 97 | 1017.4 |
| 20260905102230 | 66 | 309 | 0.0 | 0.0 | 0.00 | 0.29 | 0.29 | 97 | 1017.5 |
| 20260905101729 | 67 | 293 | 0.0 | 1.0 | 0.00 | 0.29 | 0.29 | 97 | 1017.5 |
| 20260905101227 | 67 | 5 | 2.0 | 2.0 | 0.00 | 0.29 | 0.29 | 97 | 1017.4 |
| 20260905100723 | 66 | 4 | 0.0 | 1.0 | 0.02 | 0.29 | 0.29 | 97 | 1017.7 |
| 20260905100218 | 67 | 30 | 2.0 | 2.0 | 0.12 | 0.29 | 0.29 | 97 | 1017.4 |
| 20260905095717 | 67 | 249 | 0.0 | 0.0 | 0.12 | 0.29 | 0.29 | 97 | 1017.5 |
| 20260905095212 | 67 | 221 | 3.0 | 4.0 | 0.00 | 0.27 | 0.27 | 97 | 1017.4 |
| 20260905094707 | 67 | 233 | 0.0 | 1.0 | 0.00 | 0.27 | 0.27 | 97 | 1017.8 |
| 20260905094207 | 67 | 37 | 0.0 | 1.0 | 0.00 | 0.27 | 0.27 | 97 | 1017.6 |
| 20260905093701 | 67 | 302 | 2.0 | 2.0 | 0.00 | 0.27 | 0.27 | 97 | 1017.8 |
| 20260905093157 | 67 | 41 | 2.0 | 2.0 | 0.00 | 0.27 | 0.27 | 97 | 1017.7 |
| 20260905092653 | 66 | 347 | 2.0 | 2.0 | 0.00 | 0.27 | 0.27 | 97 | 1017.7 |
| 20260905092148 | 66 | 354 | 1.0 | 1.0 | 0.00 | 0.27 | 0.27 | 97 | 1017.5 |
| 20260905091647 | 66 | 34 | 0.0 | 0.0 | 0.00 | 0.27 | 0.27 | 97 | 1017.6 |
| 20260905091142 | 66 | 348 | 1.0 | 1.0 | 0.00 | 0.27 | 0.27 | 97 | 1017.6 |
| 20260905090636 | 67 | 257 | 1.0 | 3.0 | 0.31 | 0.27 | 0.27 | 97 | 1017.7 |
| 20260905090132 | 66 | 339 | 0.0 | 1.0 | 0.78 | 0.27 | 0.27 | 97 | 1018.0 |
| 20260905085630 | 66 | 59 | 3.0 | 4.0 | 1.11 | 0.19 | 0.19 | 97 | 1017.9 |
| 20260905085126 | 66 | 257 | 0.0 | 1.0 | 0.69 | 0.12 | 0.12 | 97 | 1017.8 |
| 20260905084625 | 66 | 354 | 2.0 | 3.0 | 0.05 | 0.01 | 0.01 | 97 | 1017.8 |
| 20260905084120 | 66 | 34 | 1.0 | 2.0 | 0.02 | 0.00 | 0.00 | 97 | 1017.7 |
| 20260905083615 | 66 | 269 | 0.0 | 0.0 | 0.00 | 0.00 | 0.00 | 97 | 1018.0 |
| 20260905083112 | 66 | 269 | 0.0 | 0.0 | 0.00 | 0.00 | 0.00 | 97 | 1017.9 |
| 20260905082607 | 66 | 269 | 0.0 | 1.0 | 0.00 | 0.00 | 0.00 | 97 | 1017.6 |
| 20260905082102 | 66 | 252 | 0.0 | 0.0 | 0.00 | 0.00 | 0.00 | 97 | 1017.8 |
| 20260905081602 | 66 | 252 | 0.0 | 0.0 | 0.00 | 0.00 | 0.00 | 97 | 1018.0 |
| 20260905081056 | 66 | 113 | 0.0 | 0.0 | 0.00 | 0.00 | 0.00 | 97 | 1017.9 |
| 20260905080550 | 66 | 113 | 0.0 | 0.0 | 0.00 | 0.00 | 0.00 | 97 | 1017.8 |
| 20260905080045 | 66 | 29 | 0.0 | 0.0 | 0.00 | 0.00 | 0.00 | 97 | 1018.0 |
| 20260905075539 | 66 | 29 | 0.0 | 1.0 | 0.00 | 0.00 | 0.00 | 97 | 1018.3 |
| 20260905075039 | 66 | 17 | 0.0 | 1.0 | 0.00 | 0.00 | 0.00 | 97 | 1018.0 |
| 20260905074538 | 66 | 309 | 0.0 | 1.0 | 0.00 | 0.00 | 0.00 | 97 | 1017.9 |
| 20260905074034 | 66 | 28 | 1.0 | 1.0 | 0.00 | 0.00 | 0.00 | 97 | 1018.2 |
| 20260905073529 | 66 | 49 | 0.0 | 0.0 | 0.00 | 0.00 | 0.00 | 97 | 1017.7 |
| 20260905073025 | 66 | 329 | 0.0 | 0.0 | 0.00 | 0.00 | 0.00 | 97 | 1018.0 |
| 20260905072524 | 66 | 329 | 0.0 | 1.0 | 0.00 | 0.00 | 0.00 | 97 | 1017.9 |
| 20260905072020 | 66 | 12 | 0.0 | 2.0 | 0.00 | 0.00 | 0.00 | 97 | 1018.3 |
| 20260905071517 | 66 | 297 | 0.0 | 0.0 | 0.00 | 0.00 | 0.00 | 97 | 1018.4 |
| 20260905071017 | 66 | 217 | 0.0 | 0.0 | 0.00 | 0.00 | 0.00 | 97 | 1018.3 |
| 20260905070512 | 66 | 322 | 0.0 | 1.0 | 0.00 | 0.00 | 0.00 | 97 | 1018.7 |
| 20260905070008 | 66 | 37 | 0.0 | 0.0 | 0.00 | 0.00 | 0.00 | 97 | 1018.5 |
| 20260905065505 | 66 | 50 | 0.0 | 1.0 | 0.00 | 0.00 | 0.00 | 97 | 1019.0 |
| 20260905065001 | 66 | 310 | 0.0 | 0.0 | 0.00 | 0.00 | 0.00 | 97 | 1019.0 |
| 20260905064455 | 66 | 13 | 0.0 | 0.0 | 0.00 | 0.00 | 0.00 | 97 | 1018.9 |
| 20260905063950 | 66 | 45 | 0.0 | 1.0 | 0.00 | 0.00 | 0.00 | 97 | 1019.0 |
| 20260905063439 | 67 | 327 | 0.0 | 0.0 | 0.00 | 0.00 | 0.00 | 97 | 1018.9 |
| 20260905062935 | 67 | 327 | 0.0 | 0.0 | 0.00 | 0.00 | 0.00 | 97 | 1019.1 |
| 20260905062429 | 67 | 354 | 2.0 | 2.0 | 0.00 | 0.00 | 0.00 | 97 | 1019.4 |
| 20260905061925 | 67 | 22 | 0.0 | 1.0 | 0.00 | 0.00 | 0.00 | 97 | 1019.3 |
| 20260905061425 | 67 | 37 | 0.0 | 0.0 | 0.00 | 0.00 | 0.00 | 97 | 1019.5 |
| 20260905060924 | 67 | 29 | 0.0 | 0.0 | 0.00 | 0.00 | 0.00 | 97 | 1019.6 |
| 20260905060420 | 67 | 37 | 0.0 | 0.0 | 0.00 | 0.00 | 0.00 | 97 | 1019.5 |
| 20260905055919 | 67 | 129 | 0.0 | 0.0 | 0.00 | 0.00 | 0.00 | 97 | 1019.9 |
| 20260905055415 | 67 | 22 | 0.0 | 0.0 | 0.00 | 0.00 | 0.00 | 97 | 1019.7 |
| 20260905054914 | 67 | 22 | 0.0 | 0.0 | 0.00 | 0.00 | 0.00 | 97 | 1019.6 |
| 20260905054410 | 67 | 22 | 0.0 | 1.0 | 0.00 | 0.00 | 0.00 | 97 | 1019.7 |
| 20260905053910 | 67 | 124 | 0.0 | 0.0 | 0.00 | 0.00 | 0.00 | 97 | 1019.8 |
| 20260905053405 | 67 | 250 | 1.0 | 3.0 | 0.00 | 0.00 | 0.00 | 97 | 1020.1 |
| 20260905052901 | 67 | 325 | 0.0 | 0.0 | 0.00 | 0.00 | 0.00 | 97 | 1019.7 |
| 20260905052400 | 67 | 325 | 0.0 | 0.0 | 0.00 | 0.00 | 0.00 | 97 | 1019.9 |
| 20260905051900 | 67 | 49 | 0.0 | 0.0 | 0.00 | 0.00 | 0.00 | 97 | 1019.9 |
| 20260905051356 | 67 | 256 | 0.0 | 1.0 | 0.00 | 0.00 | 0.00 | 97 | 1019.6 |
| 20260905050853 | 67 | 342 | 0.0 | 1.0 | 0.00 | 0.00 | 0.00 | 97 | 1020.0 |
| 20260905050348 | 67 | 205 | 0.0 | 1.0 | 0.00 | 0.00 | 0.00 | 97 | 1020.1 |
| 20260905045849 | 67 | 193 | 0.0 | 0.0 | 0.00 | 0.00 | 0.00 | 97 | 1019.8 |
| 20260905045343 | 66 | 203 | 1.0 | 2.0 | 0.00 | 0.00 | 0.00 | 97 | 1020.1 |
| 20260905044839 | 66 | 224 | 0.0 | 0.0 | 0.00 | 0.00 | 0.00 | 97 | 1020.0 |
| 20260905044335 | 66 | 224 | 0.0 | 0.0 | 0.00 | 0.00 | 0.00 | 97 | 1020.1 |
| 20260905043833 | 66 | 206 | 0.0 | 2.0 | 0.00 | 0.00 | 0.00 | 97 | 1020.0 |
| 20260905043328 | 66 | 6 | 0.0 | 0.0 | 0.00 | 0.00 | 0.00 | 97 | 1020.3 |
| 20260905042823 | 66 | 37 | 0.0 | 0.0 | 0.00 | 0.00 | 0.00 | 97 | 1020.4 |
| 20260905042322 | 66 | 37 | 0.0 | 0.0 | 0.00 | 0.00 | 0.00 | 97 | 1020.8 |
| 20260905041817 | 66 | 69 | 0.0 | 0.0 | 0.00 | 0.00 | 0.00 | 97 | 1020.3 |
| 20260905041314 | 66 | 69 | 0.0 | 0.0 | 0.00 | 0.00 | 0.00 | 97 | 1020.6 |
| 20260905040809 | 66 | 69 | 0.0 | 0.0 | 0.00 | 0.00 | 0.00 | 97 | 1020.4 |
| 20260905040307 | 66 | 69 | 0.0 | 0.0 | 0.00 | 0.00 | 0.00 | 97 | 1020.7 |
| 20260905035802 | 67 | 315 | 0.0 | 1.0 | 0.00 | 0.38 | 0.38 | 97 | 1020.6 |
| 20260905035257 | 66 | 38 | 0.0 | 1.0 | 0.00 | 0.38 | 0.38 | 97 | 1020.5 |
| 20260905034754 | 67 | 311 | 1.0 | 1.0 | 0.00 | 0.38 | 0.38 | 97 | 1020.6 |
| 20260905034255 | 67 | 50 | 0.0 | 1.0 | 0.00 | 0.38 | 0.38 | 97 | 1020.5 |
| 20260905033753 | 66 | 55 | 0.0 | 0.0 | 0.00 | 0.38 | 0.38 | 97 | 1020.5 |
| 20260905033249 | 66 | 17 | 0.0 | 1.0 | 0.00 | 0.38 | 0.38 | 97 | 1020.3 |
| 20260905032748 | 66 | 333 | 0.0 | 2.0 | 0.00 | 0.38 | 0.38 | 97 | 1020.3 |
| 20260905032243 | 66 | 60 | 0.0 | 0.0 | 0.00 | 0.38 | 0.38 | 97 | 1019.9 |
| 20260905031738 | 67 | 60 | 0.0 | 0.0 | 0.00 | 0.38 | 0.38 | 97 | 1020.0 |
| 20260905031234 | 67 | 44 | 0.0 | 0.0 | 0.00 | 0.38 | 0.38 | 97 | 1020.1 |
| 20260905030729 | 67 | 40 | 0.0 | 1.0 | 0.00 | 0.38 | 0.38 | 97 | 1020.0 |
| 20260905030224 | 67 | 322 | 0.0 | 1.0 | 0.00 | 0.38 | 0.38 | 97 | 1020.0 |
| 20260905025719 | 67 | 308 | 0.0 | 1.0 | 0.00 | 0.38 | 0.38 | 97 | 1020.1 |